TimeCDT,TemperatureF,Dew PointF,Humidity,Sea Level PressureIn,VisibilityMPH,Wind Direction,Wind SpeedMPH,Gust SpeedMPH,PrecipitationIn,Events,Conditions,WindDirDegrees,DateUTC
12:53 AM,59.0,41.0,51,30.11,10.0,South,8.1,-,N/A,,Clear,170,2012-10-15 05:53:00
1:53 AM,59.0,41.0,51,30.10,10.0,South,8.1,-,N/A,,Clear,170,2012-10-15 06:53:00
2:53 AM,59.0,41.0,51,30.09,10.0,South,8.1,-,N/A,,Clear,170,2012-10-15 07:53:00
3:53 AM,57.9,41.0,53,30.08,10.0,SSE,6.9,-,N/A,,Clear,160,2012-10-15 08:53:00
4:53 AM,59.0,41.0,51,30.07,10.0,South,8.1,-,N/A,,Clear,170,2012-10-15 09:53:00
5:53 AM,57.9,39.9,51,30.08,10.0,South,8.1,-,N/A,,Clear,170,2012-10-15 10:53:00
6:53 AM,60.1,39.0,46,30.07,10.0,South,10.4,-,N/A,,Clear,170,2012-10-15 11:53:00
7:53 AM,60.1,39.9,47,30.08,10.0,SSE,5.8,-,N/A,,Clear,150,2012-10-15 12:53:00
8:53 AM,59.0,41.0,51,30.09,10.0,Calm,Calm,-,N/A,,Clear,0,2012-10-15 13:53:00
9:53 AM,64.0,41.0,43,30.10,10.0,SE,6.9,-,N/A,,Clear,130,2012-10-15 14:53:00
10:53 AM,69.1,43.0,39,30.09,10.0,SSE,9.2,-,N/A,,Clear,150,2012-10-15 15:53:00
11:53 AM,73.9,46.0,37,30.07,10.0,South,10.4,-,N/A,,Clear,180,2012-10-15 16:53:00
12:53 PM,75.9,46.9,36,30.04,10.0,SSE,11.5,-,N/A,,Clear,150,2012-10-15 17:53:00
1:53 PM,78.1,48.0,35,29.99,10.0,SE,9.2,-,N/A,,Clear,140,2012-10-15 18:53:00
2:53 PM,78.1,50.0,37,29.95,10.0,SE,12.7,19.6,N/A,,Clear,140,2012-10-15 19:53:00
3:53 PM,79.0,50.0,36,29.92,10.0,SSE,12.7,19.6,N/A,,Clear,160,2012-10-15 20:53:00
4:53 PM,78.1,50.0,37,29.91,10.0,SE,11.5,-,N/A,,Clear,140,2012-10-15 21:53:00
5:53 PM,75.9,48.9,38,29.91,10.0,SSE,11.5,23.0,N/A,,Clear,160,2012-10-15 22:53:00
6:53 PM,73.0,48.9,42,29.91,10.0,SSE,13.8,21.9,N/A,,Clear,160,2012-10-15 23:53:00
7:53 PM,71.1,48.9,45,29.91,10.0,SSE,10.4,-,N/A,,Clear,160,2012-10-16 00:53:00
8:53 PM,70.0,48.9,47,29.92,10.0,SSE,9.2,-,N/A,,Clear,150,2012-10-16 01:53:00
9:53 PM,69.1,50.0,51,29.91,10.0,SSE,11.5,-,N/A,,Clear,160,2012-10-16 02:53:00
10:53 PM,68.0,50.0,52,29.90,10.0,SSE,12.7,-,N/A,,Clear,160,2012-10-16 03:53:00
11:53 PM,69.1,48.9,49,29.88,10.0,South,11.5,-,N/A,,Clear,180,2012-10-16 04:53:00